Flag for Germany Weather past 2 weeks in Radebeul, Saxony, Germany

Now
40 °F

Passing clouds.


Feels Like: 37 °F
Forecast: 36 / 46 °F
Wind: 5 mph from Southwest

Location: Dresden-Klotzsche

Current Time: Mar 2, 2015 at 9:03:50 PM

Latest Report: Mar 2, 2015 at 8:00 PM


Visibility: 28 mi

Pressure: 29.76 "Hg

Humidity: 60%

Dew point: 27 °F

Location of RadebeulLocation

Historic Weather in Radebeul — Graph

°F

Radebeul temperature yesterday

Maximum temperature yesterday: 45 °F (at 5:00 PM)
Minimum temperature yesterday: 32 °F (at 12:00 AM)
Average temperature yesterday: 38 °F

Past Weeks' High & Low Weather Summary

 TemperatureHumidityPressure
High53 °F (Feb 20, 3:00 PM)97% (Feb 17, 6:00 PM)30.76 "Hg (Feb 17, 6:00 PM)
Low25 °F (Feb 20, 8:00 AM)34% (Feb 26, 3:00 PM)29.44 "Hg (Feb 21, 2:00 PM)
Average38 °F77%30.01 "Hg
* Reported Feb 15 8:00 PM — Mar 2 8:00 PM, Radebeul, Weather by CustomWeather, © 2015

Note: Actual official high and low records may vary slightly from our data, if they occured in-between our weather recording intervals... More about our weather records

Advertising

Radebeul weather history for previous 24 hours

 ConditionsComfort  
Time TempWeatherWind HumidityBarometerVisibility
8:00 PM
Mon, Mar 2
40 °FPassing clouds.5 mph60%29.76 "Hg28 mi
7:00 PM40 °FPassing clouds.5 mph57%29.74 "Hg28 mi
6:00 PM42 °FPassing clouds.5 mph56%29.72 "Hg31 mi
5:00 PM44 °FPassing clouds.7 mph51%29.69 "Hg31 mi
4:00 PM45 °FScattered clouds.12 mph51%29.67 "Hg31 mi
3:00 PM45 °FPartly sunny.12 mph52%29.63 "Hg31 mi
2:00 PM44 °FScattered clouds.12 mph55%29.62 "Hg28 mi
1:00 PM44 °FScattered clouds.14 mph51%29.59 "Hg28 mi
12:00 PM44 °FPartly sunny.N/A59%29.58 "Hg28 mi
11:00 AM44 °FScattered clouds.13 mph63%29.55 "Hg28 mi
10:00 AM44 °FPassing clouds.10 mph71%29.54 "Hg25 mi
9:00 AM42 °FPassing clouds.10 mph80%29.54 "Hg25 mi
8:00 AM40 °FOvercast.10 mph88%29.50 "Hg25 mi
7:00 AM42 °FLight rain. Low clouds.6 mph92%29.44 "Hg8 mi
6:00 AM43 °FOvercast.7 mph84%29.47 "Hg19 mi
5:00 AM43 °FPassing clouds.6 mph82%29.47 "Hg19 mi
3:00 AM41 °FOvercast.6 mph80%29.55 "Hg19 mi
2:00 AM41 °FOvercast.6 mph79%29.61 "Hg19 mi
1:00 AM42 °FPassing clouds.7 mph77%29.64 "Hg19 mi
12:00 AM42 °FOvercast.6 mph83%29.65 "Hg16 mi
11:00 PM
Sun, Mar 1
44 °FOvercast.6 mph80%29.66 "Hg16 mi
9:00 PM44 °FOvercast.7 mph76%29.67 "Hg19 mi
Weather by CustomWeather, © 2015

See weather overviewHow to use our weather pages